Simultaneous Nadir Overpasses (SNOs) Predictions

Prediction of SNOs between GOES-14 and NOAA-20 Satellite Orbit:

Table of predicted SNOs for the next 14.0 days since TLE Epoch: 12/26/2020
Index Date Time (GOES-14) GOES-14 Lat,Lon NOAA-20 Lat,Lon Distance(km) Time Diff (sec)
1 12/26/2020 20:20:45 0.07,-104.09 -0.00,-104.35 30.63 80
2 12/27/2020 20:04:41 0.06,-104.09 1.01, -99.82 486.21 80
3 12/29/2020 08:26:30 -0.07,-104.37 0.09,-105.11 84.22 80
4 12/30/2020 08:05:06 -0.06,-104.36 -0.92,-100.58 431.75 80
5 12/31/2020 20:27:01 0.07,-104.07 -0.34,-105.86 204.41 80
6 01/01/2021 20:10:57 0.06,-104.07 0.67,-101.33 311.99 80
7 01/03/2021 08:32:46 -0.07,-104.35 0.42,-106.62 257.72 80
8 01/04/2021 08:11:21 -0.07,-104.35 -0.59,-102.09 258.32 80
9 01/05/2021 20:33:17 0.08,-104.05 -0.67,-107.37 378.49 80
10 01/06/2021 20:17:12 0.07,-104.05 0.35,-102.84 137.92 80
11 01/08/2021 08:36:21 -0.08,-104.34 0.75,-108.13 431.02 80
